Weather History for KOZR - February, 2013

Change the Weather History Date:

Saturday, February 16, 2013

  Actual Average Record
Temperature  
Mean Temperature 43 °F -  
Max Temperature 52 °F 62 °F 80 °F (2000)
Min Temperature 33 °F 41 °F 26 °F (2007)
Degree Days  
Heating Degree Days 22    
Moisture  
Dew Point 28 °F    
Average Humidity 53    
Maximum Humidity 79    
Minimum Humidity 22    
Precipitation  
Precipitation 0.00 in - - ()
Sea Level Pressure  
Sea Level Pressure 30.09 in    
Wind  
Wind Speed 9 mph (NW)    
Max Wind Speed 22 mph    
Max Gust Speed 36 mph    
Visibility 10 miles    
Events Rain    
Averages and records for this station are not official NWS values.
T = Trace of Precipitation, MM = Missing Value Source: NWS Daily Summary

Daily Weather History Graph

Daily Weather History Graph

Search for Another Location

Airport or City:

Trip Planner

Search our weather history database for the weather conditions in past years. The results will help you decide how hot, cold, wet, or windy it might be!

Date:

Astronomy

Feb. 16, 2013 Rise Set
Actual Time 6:23 AM CST 5:31 PM CST
Civil Twilight 5:58 AM CST 5:55 PM CST
Nautical Twilight 5:29 AM CST 6:24 PM CST
Astronomical Twilight 5:01 AM CST 6:52 PM CST
Moon 10:03 AM CST (2/16) 11:57 PM CST (2/16)
Length of Visible Light 11h 57m
Length of Day
11h 08m
Waxing Crescent, 39% of the Moon is Illuminated
Feb 16
Waxing Crescent
Feb 17
First Quarter
Feb 25
Full
Mar 4
Last Quarter
Mar 11
New

Hourly Weather History & Observations

Time (CST) Temp. Windchill Dew Point Humidity Pressure Visibility Wind Dir Wind Speed Gust Speed Precip Events Conditions
12:58 AM 48.4 °F - 38.1 °F 68% 30.03 in 10.0 mi NNW 8.1 mph - N/A   Clear
1:58 AM 46.2 °F 41.7 °F 38.5 °F 74% 30.03 in 10.0 mi NW 9.2 mph - N/A   Clear
2:58 AM 44.2 °F 41.0 °F 37.9 °F 79% 30.03 in 10.0 mi NW 5.8 mph - N/A   Clear
3:58 AM 44.4 °F 41.2 °F 38.1 °F 79% 30.03 in 10.0 mi NW 5.8 mph - N/A   Overcast
4:58 AM 44.8 °F 42.4 °F 38.3 °F 78% 30.04 in 10.0 mi WNW 4.6 mph - N/A   Overcast
5:06 AM 44.6 °F 42.2 °F 37.4 °F 76% 30.03 in 10.0 mi WNW 4.6 mph - N/A Rain Light Rain
5:20 AM 44.6 °F 40.7 °F 37.4 °F 76% 30.03 in 10.0 mi NW 6.9 mph - N/A   Mostly Cloudy
5:46 AM 44.6 °F 40.2 °F 37.4 °F 76% 30.05 in 10.0 mi NW 8.1 mph - N/A Rain Light Rain
5:58 AM 45.5 °F 41.3 °F 38.5 °F 76% 30.06 in 10.0 mi NW 8.1 mph - 0.00 in Rain Light Rain
6:08 AM 46.4 °F 43.5 °F 39.2 °F 76% 30.05 in 10.0 mi NW 5.8 mph - N/A   Overcast
6:20 AM 46.4 °F 42.4 °F 39.2 °F 76% 30.06 in 10.0 mi WNW 8.1 mph - N/A Rain Light Rain
6:38 AM 46.4 °F 41.5 °F 37.4 °F 71% 30.07 in 10.0 mi WNW 10.4 mph 16.1 mph N/A   Mostly Cloudy
6:58 AM 45.7 °F 41.5 °F 36.5 °F 70% 30.08 in 10.0 mi WNW 8.1 mph - 0.00 in   Mostly Cloudy
7:37 AM 46.4 °F 42.9 °F 33.8 °F 62% 30.08 in 10.0 mi Variable 6.9 mph - N/A Rain Light Rain
7:49 AM 46.4 °F 45.2 °F 32.0 °F 57% 30.06 in 10.0 mi Variable 3.5 mph - N/A   Partly Cloudy
7:58 AM 46.2 °F 42.2 °F 34.5 °F 64% 30.07 in 10.0 mi WSW 8.1 mph - 0.00 in   Scattered Clouds
8:58 AM 47.8 °F - 34.7 °F 60% 30.09 in 10.0 mi WNW 12.7 mph - N/A   Mostly Cloudy
9:58 AM 49.8 °F - 29.1 °F 45% 30.10 in 10.0 mi NW 16.1 mph 24.2 mph N/A   Scattered Clouds
10:58 AM 51.1 °F - 27.0 °F 39% 30.10 in 10.0 mi NW 12.7 mph 23.0 mph N/A   Scattered Clouds
11:58 AM 50.5 °F - 24.6 °F 36% 30.08 in 10.0 mi NW 20.7 mph 26.5 mph N/A   Scattered Clouds
12:41 PM 51.8 °F - 23.0 °F 33% 30.06 in 10.0 mi NW 16.1 mph 20.7 mph N/A   Scattered Clouds
12:58 PM 52.5 °F - 23.4 °F 32% 30.07 in 10.0 mi NW 13.8 mph 24.2 mph N/A   Mostly Cloudy
1:58 PM 49.3 °F - 17.2 °F 28% 30.06 in 10.0 mi West 17.3 mph 35.7 mph N/A   Mostly Cloudy
1:59 PM 50.0 °F - 17.6 °F 28% 30.05 in 10.0 mi West 20.7 mph 35.7 mph N/A   Mostly Cloudy
2:20 PM 48.2 °F - 17.6 °F 30% 30.06 in 10.0 mi NW 21.9 mph 29.9 mph N/A   Mostly Cloudy
2:58 PM 48.7 °F - 16.0 °F 27% 30.08 in 10.0 mi WNW 17.3 mph 27.6 mph N/A   Mostly Cloudy
3:58 PM 49.6 °F - 12.4 °F 22% 30.09 in 10.0 mi WNW 16.1 mph 25.3 mph N/A   Partly Cloudy
4:58 PM 46.8 °F - 10.9 °F 24% 30.11 in 10.0 mi WNW 17.3 mph 23.0 mph N/A   Clear
5:58 PM 43.3 °F 37.7 °F 13.6 °F 30% 30.13 in 10.0 mi NW 10.4 mph - N/A   Clear
6:58 PM 40.6 °F 36.0 °F 15.1 °F 35% 30.16 in 10.0 mi NW 6.9 mph - N/A   Clear
7:58 PM 39.4 °F 35.2 °F 15.6 °F 38% 30.20 in 10.0 mi WNW 5.8 mph - N/A   Clear
8:58 PM 37.2 °F 32.6 °F 16.9 °F 44% 30.22 in 10.0 mi NW 5.8 mph - N/A   Clear
9:58 PM 36.0 °F 31.1 °F 17.6 °F 47% 30.25 in 10.0 mi NW 5.8 mph - N/A   Clear
10:58 PM 34.7 °F 29.6 °F 18.7 °F 52% 30.25 in 10.0 mi WNW 5.8 mph - N/A   Clear
11:58 PM 33.1 °F 28.7 °F 19.6 °F 58% 30.27 in 10.0 mi WNW 4.6 mph - N/A   Clear